Weather History for PAII - November, 2013

Change the Weather History Date:

Thursday, November 14, 2013

  Actual Average (PAKN) Record (PAKN)
Temperature  
Mean Temperature 40 °F 23 °F  
Max Temperature 42 °F 30 °F 50 °F (2014)
Min Temperature 39 °F 15 °F -26 °F (1977)
Degree Days  
Heating Degree Days 24 42  
Month to date heating degree days 565  
Since 1 July heating degree days 2677  
Cooling Degree Days 0    
Month to date cooling degree days  
Year to date cooling degree days  
Moisture  
Dew Point 38 °F    
Average Humidity 92    
Maximum Humidity 100    
Minimum Humidity 87    
Precipitation  
Precipitation 0.08 in 0.05 in 0.44 in (1960)
Month to date precipitation 0.68  
Year to date precipitation 17.55  
Snow  
Snow 0.00 in 0.20 in 3.70 in (1960)
Month to date snowfall 2.6  
Since 1 July snowfall 5.5  
Since 1 September snowfall 5.5  
Snow Depth -    
Sea Level Pressure  
Sea Level Pressure 30.24 in    
Wind  
Wind Speed 13 mph (West)    
Max Wind Speed 18 mph    
Max Gust Speed 23 mph    
Visibility 7 miles    
Events      
T = Trace of Precipitation, MM = Missing Value Source: NWS Daily Summary

Daily Weather History Graph

Daily Weather History Graph

Search for Another Location

Airport or City:

Trip Planner

Search our weather history database for the weather conditions in past years. The results will help you decide how hot, cold, wet, or windy it might be!

Date:

Astronomy

Nov. 14, 2013 Rise Set
Actual Time 9:15 AM AKST 5:11 PM AKST
Civil Twilight 8:30 AM AKST 5:56 PM AKST
Nautical Twilight 7:41 AM AKST 6:45 PM AKST
Astronomical Twilight 6:55 AM AKST 7:32 PM AKST
Moon 4:08 PM AKST (11/14) 5:48 AM AKST (11/14)
Length of Visible Light 9h 26m
Length of Day
7h 55m
Waxing Gibbous, 92% of the Moon is Illuminated
Nov 14
Waxing Gibbous
Nov 17
Full
Nov 25
Last Quarter
Dec 2
New
Dec 9
First Quarter

Hourly Weather History & Observations

Time (AKST) Temp. Windchill Dew Point Humidity Pressure Visibility Wind Dir Wind Speed Gust Speed Precip Events Conditions
12:16 AM 42.8 °F 35.1 °F 41.0 °F 93% 30.33 in 5.0 mi WSW 16.1 mph 23.0 mph N/A   Overcast
12:36 AM 42.8 °F 35.1 °F 41.0 °F 93% 30.32 in 3.0 mi WSW 16.1 mph 21.9 mph N/A   Overcast
12:56 AM 42.8 °F 34.5 °F 42.8 °F 100% 30.32 in 3.0 mi WSW 18.4 mph - N/A   Overcast
1:16 AM 42.8 °F 34.5 °F 42.8 °F 100% 30.32 in 3.0 mi WSW 18.4 mph 23.0 mph N/A   Overcast
1:36 AM 42.8 °F 34.5 °F 42.8 °F 100% 30.32 in 5.0 mi WSW 18.4 mph 23.0 mph N/A   Overcast
1:56 AM 42.8 °F 35.1 °F 42.8 °F 100% 30.31 in 3.0 mi WSW 16.1 mph - N/A   Overcast
2:16 AM 42.8 °F 34.5 °F 42.8 °F 100% 30.31 in 5.0 mi WSW 18.4 mph - N/A   Overcast
2:36 AM 42.8 °F 34.8 °F 42.8 °F 100% 30.32 in 3.0 mi WSW 17.3 mph 23.0 mph N/A   Overcast
2:56 AM 42.8 °F 35.4 °F 42.8 °F 100% 30.30 in 2.5 mi WSW 15.0 mph 20.7 mph N/A   Overcast
3:16 AM 42.8 °F 35.1 °F 42.8 °F 100% 30.30 in 3.0 mi WSW 16.1 mph - 0.01 in   Overcast
3:36 AM 42.8 °F 35.8 °F 41.0 °F 93% 30.29 in 3.0 mi WSW 13.8 mph 19.6 mph 0.02 in   Overcast
3:56 AM 42.8 °F 35.8 °F 41.0 °F 93% 30.28 in 4.0 mi WSW 13.8 mph - 0.02 in   Overcast
4:16 AM 42.8 °F 35.1 °F 41.0 °F 93% 30.28 in 4.0 mi WSW 16.1 mph - N/A   Overcast
4:36 AM 42.8 °F 35.4 °F 41.0 °F 93% 30.28 in 2.5 mi WSW 15.0 mph - N/A   Overcast
4:56 AM 42.8 °F 36.2 °F 41.0 °F 93% 30.27 in 2.5 mi West 12.7 mph - N/A   Overcast
5:16 AM 42.8 °F 36.2 °F 41.0 °F 93% 30.27 in 2.5 mi West 12.7 mph - N/A   Overcast
5:36 AM 41.0 °F 33.9 °F 39.2 °F 93% 30.26 in 4.0 mi West 12.7 mph 17.3 mph N/A   Overcast
5:56 AM 42.8 °F 36.6 °F 41.0 °F 93% 30.25 in 3.0 mi WSW 11.5 mph - N/A   Overcast
6:16 AM 42.8 °F 36.2 °F 41.0 °F 93% 30.25 in 9.0 mi WSW 12.7 mph - N/A   Overcast
6:36 AM 42.8 °F 36.6 °F 41.0 °F 93% 30.26 in 5.0 mi WSW 11.5 mph - N/A   Overcast
6:56 AM 42.8 °F 37.0 °F 41.0 °F 93% 30.25 in 10.0 mi West 10.4 mph - N/A   Overcast
7:16 AM 42.8 °F 37.0 °F 41.0 °F 93% 30.24 in 9.0 mi WSW 10.4 mph - N/A   Overcast
7:36 AM 42.8 °F 36.6 °F 41.0 °F 93% 30.24 in 7.0 mi West 11.5 mph - N/A   Overcast
7:56 AM 42.8 °F 36.6 °F 41.0 °F 93% 30.24 in 7.0 mi West 11.5 mph - N/A   Overcast
8:16 AM 42.8 °F 36.6 °F 39.2 °F 87% 30.24 in 4.0 mi West 11.5 mph - 0.01 in   Overcast
8:36 AM 41.0 °F 34.3 °F 39.2 °F 93% 30.24 in 2.5 mi West 11.5 mph - 0.01 in   Overcast
8:56 AM 41.0 °F 34.3 °F 39.2 °F 93% 30.23 in 1.2 mi West 11.5 mph - 0.02 in   Overcast
9:16 AM 41.0 °F 34.3 °F 39.2 °F 93% 30.23 in 10.0 mi West 11.5 mph - N/A   Overcast
9:36 AM 41.0 °F 34.3 °F 39.2 °F 93% 30.24 in 10.0 mi West 11.5 mph - N/A   Overcast
9:56 AM 41.0 °F 34.3 °F 39.2 °F 93% 30.24 in 10.0 mi West 11.5 mph - 0.01 in   Overcast
10:16 AM 41.0 °F 33.9 °F 39.2 °F 93% 30.23 in 4.0 mi West 12.7 mph - N/A   Overcast
10:36 AM 41.0 °F 34.3 °F 39.2 °F 93% 30.23 in 4.0 mi West 11.5 mph - N/A   Overcast
10:56 AM 41.0 °F 34.7 °F 39.2 °F 93% 30.23 in 4.0 mi West 10.4 mph - 0.01 in   Overcast
11:16 AM 41.0 °F 34.3 °F 39.2 °F 93% 30.23 in 4.0 mi West 11.5 mph - N/A   Overcast
11:36 AM 41.0 °F 33.9 °F 39.2 °F 93% 30.23 in 7.0 mi West 12.7 mph - N/A   Overcast
11:56 AM 39.2 °F 32.0 °F 39.2 °F 100% 30.23 in 7.0 mi West 11.5 mph - 0.01 in   Overcast
12:16 PM 39.2 °F 32.0 °F 37.4 °F 93% 30.24 in 9.0 mi West 11.5 mph - 0.01 in   Overcast
12:36 PM 39.2 °F 31.6 °F 37.4 °F 93% 30.23 in 10.0 mi West 12.7 mph - 0.01 in   Overcast
12:56 PM 39.2 °F 32.0 °F 37.4 °F 93% 30.21 in 10.0 mi West 11.5 mph - 0.01 in   Overcast
1:16 PM 39.2 °F 32.5 °F 35.6 °F 87% 30.22 in 10.0 mi West 10.4 mph - N/A   Overcast
1:36 PM 39.2 °F 31.6 °F 37.4 °F 93% 30.23 in 10.0 mi West 12.7 mph - N/A   Overcast
1:56 PM 39.2 °F 32.0 °F 37.4 °F 93% 30.22 in 10.0 mi West 11.5 mph - N/A   Overcast
2:16 PM 39.2 °F 32.0 °F 37.4 °F 93% 30.20 in 10.0 mi West 11.5 mph - N/A   Overcast
2:36 PM 39.2 °F 32.5 °F 37.4 °F 93% 30.20 in 10.0 mi West 10.4 mph - N/A   Overcast
2:56 PM 39.2 °F 32.0 °F 35.6 °F 87% 30.21 in 10.0 mi West 11.5 mph - N/A   Overcast
3:16 PM 39.2 °F 31.6 °F 35.6 °F 87% 30.20 in 10.0 mi West 12.7 mph - N/A   Overcast
3:36 PM 39.2 °F 32.5 °F 35.6 °F 87% 30.21 in 10.0 mi West 10.4 mph - N/A   Mostly Cloudy
3:56 PM 39.2 °F 31.2 °F 35.6 °F 87% 30.21 in 10.0 mi West 13.8 mph - N/A   Partly Cloudy
4:16 PM 39.2 °F 31.6 °F 35.6 °F 87% 30.22 in 10.0 mi West 12.7 mph 17.3 mph N/A   Mostly Cloudy
4:36 PM 39.2 °F 32.0 °F 35.6 °F 87% 30.21 in 10.0 mi West 11.5 mph - N/A   Overcast
4:56 PM 39.2 °F 32.0 °F 35.6 °F 87% 30.22 in 10.0 mi West 11.5 mph - N/A   Overcast
5:16 PM 39.2 °F 31.6 °F 35.6 °F 87% 30.23 in 10.0 mi WNW 12.7 mph - N/A   Overcast
5:36 PM 39.2 °F 31.6 °F 35.6 °F 87% 30.22 in 10.0 mi WNW 12.7 mph - N/A   Overcast
5:56 PM 39.2 °F 32.5 °F 35.6 °F 87% 30.23 in 10.0 mi WNW 10.4 mph - N/A   Overcast
6:16 PM 39.2 °F 33.0 °F 35.6 °F 87% 30.23 in 10.0 mi WNW 9.2 mph - N/A   Overcast
6:36 PM 39.2 °F 33.0 °F 35.6 °F 87% 30.22 in 10.0 mi WNW 9.2 mph - N/A   Overcast
6:56 PM 39.2 °F 33.0 °F 35.6 °F 87% 30.22 in 10.0 mi WNW 9.2 mph - N/A   Overcast
7:16 PM 39.2 °F 33.6 °F 35.6 °F 87% 30.22 in 10.0 mi WNW 8.1 mph - N/A   Overcast
7:36 PM 39.2 °F 33.0 °F 35.6 °F 87% 30.22 in 10.0 mi WNW 9.2 mph - N/A   Overcast
7:56 PM 39.2 °F 33.6 °F 35.6 °F 87% 30.21 in 10.0 mi WNW 8.1 mph - N/A   Overcast
8:16 PM 39.2 °F - 35.6 °F 87% 30.22 in 10.0 mi North - - N/A   Overcast
8:36 PM 39.2 °F 33.6 °F 35.6 °F 87% 30.22 in 8.0 mi West 8.1 mph - N/A   Overcast
8:56 PM 39.2 °F 33.0 °F 37.4 °F 93% 30.23 in 9.0 mi WNW 9.2 mph - N/A   Overcast
9:16 PM 39.2 °F 33.0 °F 35.6 °F 87% 30.24 in 10.0 mi WNW 9.2 mph - N/A   Overcast
9:56 PM 39.2 °F 32.5 °F 35.6 °F 87% 30.23 in 9.0 mi WNW 10.4 mph - N/A   Overcast
10:16 PM 39.2 °F 33.0 °F 35.6 °F 87% 30.23 in 10.0 mi West 9.2 mph - N/A   Overcast
10:36 PM 39.2 °F 33.6 °F 35.6 °F 87% 30.22 in 10.0 mi West 8.1 mph - N/A   Overcast
10:56 PM 39.2 °F 34.2 °F 35.6 °F 87% 30.21 in 10.0 mi WNW 6.9 mph - N/A   Overcast
11:16 PM 39.2 °F 34.2 °F 35.6 °F 87% 30.22 in 10.0 mi WNW 6.9 mph - N/A   Overcast
11:36 PM 39.2 °F 34.2 °F 35.6 °F 87% 30.23 in 10.0 mi WNW 6.9 mph - N/A   Overcast
11:56 PM 39.2 °F 34.2 °F 35.6 °F 87% 30.22 in 10.0 mi West 6.9 mph - N/A   Overcast